Terminal Aerodrome Forecast
Issued by NWS

Home | Current Version | Previous Version | Text Only | Print | Product List | Glossary On
Versions: 1 2 3 4 5 6 7 8 9 10 11 12 13 14 15 16 17 18 19 20 21 22 23
000
FTPA31 PHFO 020500
TAFKOA
TAF
PHKO 020539Z 0206/0306 16009KT P6SM FEW025 FEW050
     FM020800 09005KT P6SM FEW050
     FM022000 23008KT P6SM FEW025 BKN060
     FM030500 17009KT P6SM FEW025 FEW050=

USA.gov is the U.S. government's official web portal to all federal, state and local government web resources and services.